EW8576 Weather Reports


Display with metric or nautical units.
time (UTC)temp
F
wind
direction
speed
MPH
gust
MPH
rain 1hr
in
rain 24hr
in
rain mn
in
humidity
%
barometer
mb
20210126044213 27 17 0.0 1.0 0.00 0.00 0.00 65 1016.6
20210126043704 27 17 0.0 2.0 0.00 0.00 0.00 65 1016.7
20210126043202 27 24 0.0 2.0 0.00 0.00 0.00 64 1016.8
20210126042700 27 61 1.0 5.0 0.00 0.00 0.00 64 1016.6
20210126042158 27 34 2.0 6.0 0.00 0.00 0.00 64 1016.7
20210126041649 27 42 3.0 8.0 0.00 0.00 0.00 64 1016.5
20210126041144 27 61 4.0 10.0 0.00 0.00 0.00 65 1016.3
20210126040637 27 63 4.0 10.0 0.00 0.00 0.00 64 1016.5
20210126040141 27 53 2.0 7.0 0.00 0.00 0.00 65 1016.8
20210126035633 27 59 1.0 5.0 0.00 0.00 0.00 65 1016.7
20210126035132 27 64 1.0 5.0 0.00 0.00 0.00 64 1016.7
20210126034634 27 49 1.0 5.0 0.00 0.00 0.00 64 1016.7
20210126034127 27 67 2.0 6.0 0.00 0.00 0.00 64 1016.9
20210126033629 27 63 2.0 6.0 0.00 0.00 0.00 64 1016.8
20210126033124 27 66 2.0 7.0 0.00 0.00 0.00 64 1017.2
20210126032621 27 65 3.0 8.0 0.00 0.00 0.00 64 1017.1
20210126032119 27 53 3.0 8.0 0.00 0.00 0.00 64 1017.2
20210126031615 27 43 2.0 6.0 0.00 0.00 0.00 64 1017.2
20210126031114 27 46 2.0 7.0 0.00 0.00 0.00 65 1017.2
20210126030612 26 71 1.0 7.0 0.00 0.00 0.00 65 1017.3
20210126030110 26 54 0.0 2.0 0.00 0.00 0.00 66 1017.4
20210126025603 26 69 0.0 2.0 0.00 0.00 0.00 66 1017.3
20210126025101 27 71 0.0 1.0 0.00 0.00 0.00 66 1017.3
20210126024558 27 71 0.0 1.0 0.00 0.00 0.00 65 1017.3
20210126024057 27 69 0.0 1.0 0.00 0.00 0.00 65 1017.3
20210126023602 27 54 0.0 5.0 0.00 0.00 0.00 64 1017.4
20210126023037 27 59 0.0 5.0 0.00 0.00 0.00 66 1017.4
20210126022526 27 64 0.0 1.0 0.00 0.00 0.00 66 1017.3
20210126022026 26 63 0.0 1.0 0.00 0.00 0.00 66 1017.2
20210126021459 27 56 0.0 1.0 0.00 0.00 0.00 67 1017.1
20210126020947 27 65 0.0 1.0 0.00 0.00 0.00 67 1017.0
20210126020445 27 66 0.0 1.0 0.00 0.00 0.00 66 1016.9
20210126015939 27 68 0.0 3.0 0.00 0.00 0.00 66 1016.8
20210126015431 27 32 1.0 3.0 0.00 0.00 0.00 65 1017.0
20210126014929 27 61 0.0 3.0 0.00 0.00 0.00 65 1017.0
20210126014427 26 51 0.0 3.0 0.00 0.00 0.00 66 1017.2
20210126013909 26 52 0.0 1.0 0.00 0.00 0.00 66 1017.2
20210126013407 26 60 0.0 0.0 0.00 0.00 0.00 67 1017.2
20210126012905 26 62 0.0 0.0 0.00 0.00 0.00 68 1017.1
20210126012404 26 62 0.0 0.0 0.00 0.00 0.00 68 1017.0
20210126011901 26 62 0.0 0.0 0.00 0.00 0.00 68 1017.0
20210126011351 26 62 0.0 0.0 0.00 0.00 0.00 68 1017.0
20210126010849 26 62 0.0 0.0 0.00 0.00 0.00 68 1016.9
20210126010338 26 62 0.0 0.0 0.00 0.00 0.00 67 1016.7
20210126005822 27 62 0.0 0.0 0.00 0.00 0.00 68 1016.8
20210126005322 27 57 0.0 1.0 0.00 0.00 0.00 66 1016.8
20210126004816 27 57 0.0 1.0 0.00 0.00 0.00 64 1016.9
20210126004304 27 59 0.0 1.0 0.00 0.00 0.00 63 1016.8
20210126003758 27 71 1.0 7.0 0.00 0.00 0.00 64 1016.9
20210126003255 27 49 2.0 7.0 0.00 0.00 0.00 64 1017.0
20210126002753 26 44 1.0 5.0 0.00 0.00 0.00 66 1016.9
20210126002250 26 83 0.0 3.0 0.00 0.00 0.00 68 1016.8
20210126001749 26 98 0.0 1.0 0.00 0.00 0.00 68 1016.6
20210126001235 26 88 0.0 2.0 0.00 0.00 0.00 71 1016.9
20210126000719 26 86 0.0 2.0 0.00 0.00 0.00 68 1017.1
20210126000208 25 81 0.0 1.0 0.00 0.00 0.00 69 1017.1
20210125235702 26 66 0.0 1.0 0.00 0.00 0.00 69 1017.3
20210125235200 26 70 0.0 1.0 0.00 0.00 0.00 69 1017.3
20210125234708 26 70 0.0 1.0 0.00 0.00 0.00 69 1017.4
20210125234154 26 69 0.0 0.0 0.00 0.00 0.00 68 1017.5
20210125233644 26 69 0.0 0.0 0.00 0.00 0.00 66 1017.4
20210125233130 26 69 0.0 0.0 0.00 0.00 0.00 67 1017.4
20210125232623 26 69 0.0 0.0 0.00 0.00 0.00 67 1017.5
20210125232121 26 69 0.0 0.0 0.00 0.00 0.00 68 1017.3
20210125231614 27 63 0.0 0.0 0.00 0.00 0.00 67 1017.2
20210125231110 27 59 0.0 0.0 0.00 0.00 0.00 68 1017.1
20210125230606 27 59 0.0 0.0 0.00 0.00 0.00 67 1016.9
20210125230058 28 59 0.0 0.0 0.00 0.00 0.00 64 1016.8
20210125225554 28 59 0.0 0.0 0.00 0.00 0.00 62 1016.6
20210125225028 28 59 0.0 1.0 0.00 0.00 0.00 63 1016.6
20210125224524 28 59 0.0 1.0 0.00 0.00 0.00 60 1016.5
20210125224010 29 54 0.0 1.0 0.00 0.00 0.00 59 1016.5
20210125223459 29 54 0.0 1.0 0.00 0.00 0.00 59 1016.4
20210125222946 29 50 0.0 1.0 0.00 0.00 0.00 59 1016.3
20210125222433 29 45 0.0 1.0 0.00 0.00 0.00 58 1016.3
20210125221930 29 50 0.0 2.0 0.00 0.00 0.00 58 1016.2
20210125221431 29 57 0.0 2.0 0.00 0.00 0.00 57 1016.1
20210125220924 30 51 1.0 4.0 0.00 0.00 0.00 56 1016.1
20210125220422 30 59 2.0 6.0 0.00 0.00 0.00 56 1016.1
20210125215919 30 51 3.0 7.0 0.00 0.00 0.00 55 1016.1
20210125215419 30 57 4.0 8.0 0.00 0.00 0.00 55 1016.4
20210125214916 30 46 4.0 8.0 0.00 0.00 0.00 56 1016.2
20210125214415 30 65 4.0 8.0 0.00 0.00 0.00 56 1016.1
20210125213910 30 67 2.0 6.0 0.00 0.00 0.00 56 1016.3
20210125213408 31 59 1.0 5.0 0.00 0.00 0.00 55 1016.2
20210125212905 31 72 1.0 6.0 0.00 0.00 0.00 54 1016.3
20210125212408 31 74 2.0 6.0 0.00 0.00 0.00 54 1016.4
20210125211905 31 74 3.0 6.0 0.00 0.00 0.00 55 1016.4
20210125211401 31 63 1.0 6.0 0.00 0.00 0.00 54 1016.4
20210125210856 31 80 0.0 4.0 0.00 0.00 0.00 54 1016.3
20210125210354 31 74 0.0 4.0 0.00 0.00 0.00 55 1016.4
20210125205852 31 92 0.0 4.0 0.00 0.00 0.00 54 1016.4
20210125205352 31 82 0.0 2.0 0.00 0.00 0.00 53 1016.6
20210125204848 31 121 1.0 7.0 0.00 0.00 0.00 53 1016.4
20210125204352 31 71 2.0 7.0 0.00 0.00 0.00 53 1016.7
20210125203849 31 82 3.0 9.0 0.00 0.00 0.00 53 1016.5
20210125203338 31 96 4.0 9.0 0.00 0.00 0.00 53 1016.6
20210125202839 31 64 4.0 9.0 0.00 0.00 0.00 53 1016.5
20210125202337 31 85 4.0 10.0 0.00 0.00 0.00 53 1016.6
20210125201836 32 49 4.0 10.0 0.00 0.00 0.00 53 1016.7
20210125201336 32 101 3.0 9.0 0.00 0.00 0.00 53 1016.6
20210125200822 32 45 4.0 9.0 0.00 0.00 0.00 52 1016.9
20210125200321 32 42 4.0 10.0 0.00 0.00 0.00 52 1016.8
20210125195816 32 40 3.0 10.0 0.00 0.00 0.00 51 1016.9
20210125195322 32 57 2.0 8.0 0.00 0.00 0.00 52 1016.9
20210125194813 32 13 2.0 7.0 0.00 0.00 0.00 52 1016.9
20210125194318 32 104 3.0 8.0 0.00 0.00 0.00 52 1016.9
20210125193809 32 60 4.0 10.0 0.00 0.00 0.00 53 1016.8
20210125193307 32 60 4.0 10.0 0.00 0.00 0.00 52 1016.9
20210125192804 32 53 2.0 7.0 0.00 0.00 0.00 53 1016.9
20210125192305 32 49 3.0 7.0 0.00 0.00 0.00 53 1016.7
20210125191800 31 19 5.0 12.0 0.00 0.00 0.00 53 1016.4
20210125191253 31 90 5.0 12.0 0.00 0.00 0.00 54 1016.2
20210125190757 31 47 5.0 10.0 0.00 0.00 0.00 54 1016.3
20210125190251 31 59 6.0 12.0 0.00 0.00 0.00 53 1016.4
20210125185746 31 19 5.0 12.0 0.00 0.00 0.00 53 1016.6
20210125185244 31 80 4.0 9.0 0.00 0.00 0.00 52 1016.6
20210125184745 31 44 5.0 10.0 0.00 0.00 0.00 53 1016.5
20210125184240 31 14 5.0 10.0 0.00 0.00 0.00 53 1016.3
20210125183739 31 95 4.0 9.0 0.00 0.00 0.00 54 1016.2
20210125183239 31 97 4.0 9.0 0.00 0.00 0.00 54 1016.4
20210125182734 31 57 5.0 10.0 0.00 0.00 0.00 53 1016.6
20210125182233 31 54 3.0 10.0 0.00 0.00 0.00 53 1016.5
20210125181732 31 72 3.0 8.0 0.00 0.00 0.00 53 1016.6
20210125181229 31 65 3.0 9.0 0.00 0.00 0.00 54 1016.8
20210125180727 30 44 3.0 9.0 0.00 0.00 0.00 54 1017.0
20210125180227 30 133 3.0 8.0 0.00 0.00 0.00 54 1017.1
20210125175720 30 96 2.0 8.0 0.00 0.00 0.00 54 1017.1
20210125175222 30 72 2.0 7.0 0.00 0.00 0.00 53 1017.0
20210125174725 30 59 3.0 9.0 0.00 0.00 0.00 54 1017.1
20210125174213 30 55 2.0 9.0 0.00 0.00 0.00 54 1017.2
20210125173711 29 59 1.0 4.0 0.00 0.00 0.00 55 1017.1
20210125173207 30 15 3.0 7.0 0.00 0.00 0.00 54 1017.5
20210125172705 30 11 3.0 7.0 0.00 0.00 0.00 56 1017.4
20210125172204 29 26 1.0 5.0 0.00 0.00 0.00 55 1017.4
20210125171706 29 49 2.0 7.0 0.00 0.00 0.00 55 1017.4
20210125171159 29 76 2.0 7.0 0.00 0.00 0.00 56 1017.4
20210125170711 29 103 1.0 6.0 0.00 0.00 0.00 55 1017.4
20210125170151 29 350 0.0 2.0 0.00 0.00 0.00 57 1017.4
20210125165648 28 44 1.0 4.0 0.00 0.00 0.00 57 1017.4
20210125165144 28 19 1.0 4.0 0.00 0.00 0.00 57 1017.5
20210125164712 27 9 2.0 5.0 0.00 0.00 0.00 57 1017.5
20210125164140 27 43 2.0 6.0 0.00 0.00 0.00 57 1017.7
20210125163631 27 29 1.0 6.0 0.00 0.00 0.00 58 1017.8
20210125163124 27 15 1.0 6.0 0.00 0.00 0.00 58 1017.8
20210125162632 27 166 1.0 5.0 0.00 0.00 0.00 59 1017.8
20210125162122 27 52 1.0 5.0 0.00 0.00 0.00 58 1017.9
20210125161615 26 163 0.0 2.0 0.00 0.00 0.00 59 1017.9
20210125161110 26 160 1.0 8.0 0.00 0.00 0.00 59 1018.0
20210125160616 26 74 2.0 8.0 0.00 0.00 0.00 61 1018.0
20210125160115 26 76 2.0 7.0 0.00 0.00 0.00 62 1018.0
20210125155056 25 62 2.0 7.0 0.00 0.00 0.00 63 1018.1
20210125154559 25 57 3.0 7.0 0.00 0.00 0.00 64 1018.1
20210125154054 24 80 3.0 7.0 0.00 0.00 0.00 64 1018.2
20210125153543 24 19 2.0 7.0 0.00 0.00 0.00 63 1018.4
20210125153040 24 17 1.0 5.0 0.00 0.00 0.00 64 1018.6
20210125152538 24 52 0.0 4.0 0.00 0.00 0.00 65 1018.5
20210125152036 24 33 1.0 4.0 0.00 0.00 0.00 66 1018.6
20210125151533 23 0 1.0 2.0 0.00 0.00 0.00 66 1018.9
20210125151023 23 71 2.0 6.0 0.00 0.00 0.00 67 1018.8
20210125150526 22 65 3.0 8.0 0.00 0.00 0.00 69 1018.5
20210125150037 22 73 2.0 8.0 0.00 0.00 0.00 68 1018.4
20210125145524 22 61 1.0 5.0 0.00 0.00 0.00 68 1018.4
20210125145020 22 90 1.0 5.0 0.00 0.00 0.00 69 1018.7
20210125144520 22 20 1.0 4.0 0.00 0.00 0.00 69 1018.8
20210125144021 22 74 1.0 6.0 0.00 0.00 0.00 71 1019.0
20210125143515 22 83 1.0 6.0 0.00 0.00 0.00 69 1018.8
20210125143001 22 51 0.0 4.0 0.00 0.00 0.00 70 1018.9
20210125142506 21 93 0.0 2.0 0.00 0.00 0.00 71 1018.9
20210125141957 21 87 0.0 2.0 0.00 0.00 0.00 72 1018.9
20210125141451 20 79 0.0 1.0 0.00 0.00 0.00 74 1019.0
20210125140948 20 52 0.0 1.0 0.00 0.00 0.00 75 1018.7
20210125140436 19 342 0.0 0.0 0.00 0.00 0.00 78 1018.7
20210125135924 18 342 0.0 1.0 0.00 0.00 0.00 81 1018.7
20210125135405 17 342 0.0 1.0 0.00 0.00 0.00 82 1018.9
20210125134903 17 342 0.0 2.0 0.00 0.00 0.00 84 1018.9
20210125134402 16 336 0.0 2.0 0.00 0.00 0.00 87 1018.8
20210125133900 15 196 0.0 0.0 0.00 0.00 0.00 88 1018.4
20210125133354 14 196 0.0 0.0 0.00 0.00 0.00 88 1018.4
20210125132847 14 196 0.0 0.0 0.00 0.00 0.00 88 1018.1
20210125132341 13 196 0.0 0.0 0.00 0.00 0.00 88 1018.0
20210125131829 13 196 0.0 0.0 0.00 0.00 0.00 88 1017.8
20210125130816 12 196 0.0 0.0 0.00 0.00 0.00 87 1018.4
20210125130309 11 196 0.0 0.0 0.00 0.00 0.00 86 1018.5
20210125125801 11 196 0.0 0.0 0.00 0.00 0.00 86 1018.5
20210125125253 11 196 0.0 0.0 0.00 0.00 0.00 86 1018.5
20210125124744 11 196 0.0 0.0 0.00 0.00 0.00 86 1018.5
20210125124213 11 196 0.0 0.0 0.00 0.00 0.00 86 1018.4
20210125123659 11 196 0.0 0.0 0.00 0.00 0.00 86 1018.7
20210125123157 11 196 0.0 1.0 0.00 0.00 0.00 86 1018.8
20210125122654 11 196 0.0 1.0 0.00 0.00 0.00 86 1018.9
20210125122147 11 196 0.0 0.0 0.00 0.00 0.00 86 1018.9
20210125121633 11 196 0.0 0.0 0.00 0.00 0.00 85 1018.8
20210125121105 11 196 0.0 0.0 0.00 0.00 0.00 85 1018.9
20210125120629 11 196 0.0 0.0 0.00 0.00 0.00 85 1018.7
20210125120057 11 196 0.0 0.0 0.00 0.00 0.00 85 1018.6
20210125115547 11 196 0.0 0.0 0.00 0.00 0.00 85 1018.5
20210125115019 12 196 0.0 0.0 0.00 0.00 0.00 85 1018.6
20210125113951 12 196 0.0 0.0 0.00 0.00 0.00 84 1018.2
20210125113456 12 196 0.0 0.0 0.00 0.00 0.00 84 1018.4
20210125112938 12 196 0.0 0.0 0.00 0.00 0.00 84 1018.4
20210125112427 12 196 0.0 0.0 0.00 0.00 0.00 84 1018.4
20210125111904 12 196 0.0 0.0 0.00 0.00 0.00 84 1018.4
20210125111401 12 196 0.0 0.0 0.00 0.00 0.00 84 1018.2
20210125110849 12 196 0.0 0.0 0.00 0.00 0.00 84 1018.0
20210125110312 12 196 0.0 0.0 0.00 0.00 0.00 84 1018.0
20210125105807 12 196 0.0 0.0 0.00 0.00 0.00 84 1017.9
20210125105302 12 196 0.0 1.0 0.00 0.00 0.00 84 1017.8
20210125104752 12 196 0.0 1.0 0.00 0.00 0.00 83 1017.8
20210125104250 12 196 0.0 0.0 0.00 0.00 0.00 83 1017.7
20210125103736 12 196 0.0 0.0 0.00 0.00 0.00 83 1017.8
20210125103232 12 196 0.0 0.0 0.00 0.00 0.00 84 1017.7
20210125102713 13 196 0.0 0.0 0.00 0.00 0.00 83 1017.6
20210125102202 13 196 0.0 0.0 0.00 0.00 0.00 82 1017.6
20210125101648 13 196 0.0 0.0 0.00 0.00 0.00 83 1017.6
20210125101139 13 196 0.0 0.0 0.00 0.00 0.00 83 1017.5
20210125100629 13 196 0.0 0.0 0.00 0.00 0.00 82 1017.4
20210125100136 13 196 0.0 0.0 0.00 0.00 0.00 82 1017.5
20210125095604 13 196 0.0 0.0 0.00 0.00 0.00 82 1017.5
20210125095101 13 196 0.0 0.0 0.00 0.00 0.00 82 1017.6
20210125094542 13 196 0.0 0.0 0.00 0.00 0.00 82 1017.6
20210125094023 13 196 0.0 0.0 0.00 0.00 0.00 81 1017.6
20210125093515 13 196 0.0 0.0 0.00 0.00 0.00 81 1017.7
20210125093012 13 196 0.0 0.0 0.00 0.00 0.00 81 1017.7
20210125092441 13 196 0.0 0.0 0.00 0.00 0.00 81 1017.5
20210125091942 13 196 0.0 0.0 0.00 0.00 0.00 81 1017.5
20210125091428 13 196 0.0 0.0 0.00 0.00 0.00 81 1017.4
20210125090901 13 196 0.0 0.0 0.00 0.00 0.00 81 1017.5
20210125090346 14 196 0.0 0.0 0.00 0.00 0.00 81 1017.5
20210125085839 14 196 0.0 0.0 0.00 0.00 0.00 80 1017.5
20210125085315 14 196 0.0 0.0 0.00 0.00 0.00 80 1017.5
20210125084804 14 196 0.0 0.0 0.00 0.00 0.00 80 1017.5
20210125084300 14 196 0.0 0.0 0.00 0.00 0.00 80 1017.7
20210125083754 14 196 0.0 0.0 0.00 0.00 0.00 79 1017.7
20210125083245 14 196 0.0 0.0 0.00 0.00 0.00 80 1017.7
20210125082751 15 196 0.0 0.0 0.00 0.00 0.00 79 1017.6
20210125082228 15 196 0.0 0.0 0.00 0.00 0.00 79 1017.5
20210125081719 15 196 0.0 0.0 0.00 0.00 0.00 78 1017.4
20210125081205 15 196 0.0 0.0 0.00 0.00 0.00 77 1017.5
20210125080654 15 196 0.0 0.0 0.00 0.00 0.00 77 1017.5
20210125080121 15 196 0.0 0.0 0.00 0.00 0.00 77 1017.5
20210125075613 15 196 0.0 0.0 0.00 0.00 0.00 78 1017.5
20210125075110 16 196 0.0 0.0 0.00 0.00 0.00 77 1017.5
20210125074552 16 196 0.0 0.0 0.00 0.00 0.00 77 1017.5
20210125074047 16 196 0.0 0.0 0.00 0.00 0.00 73 1017.5
20210125073520 16 196 0.0 0.0 0.00 0.00 0.00 72 1017.6
20210125073011 16 196 0.0 0.0 0.00 0.00 0.00 74 1017.6
20210125072457 16 196 0.0 0.0 0.00 0.00 0.00 75 1017.7
20210125071936 16 196 0.0 0.0 0.00 0.00 0.00 74 1017.6
20210125071417 16 196 0.0 0.0 0.00 0.00 0.00 74 1017.6
20210125070907 16 196 0.0 0.0 0.00 0.00 0.00 73 1017.6
20210125070402 16 196 0.0 0.0 0.00 0.00 0.00 71 1017.7
20210125065859 16 196 0.0 0.0 0.00 0.00 0.00 73 1017.9
20210125065322 16 196 0.0 0.0 0.00 0.00 0.00 74 1017.7
20210125064812 16 196 0.0 0.0 0.00 0.00 0.00 73 1017.7
20210125064304 17 196 0.0 0.0 0.00 0.00 0.00 73 1017.6
20210125063746 17 196 0.0 0.0 0.00 0.00 0.00 72 1017.7
20210125063234 17 196 0.0 0.0 0.00 0.00 0.00 72 1017.5
20210125062720 17 196 0.0 1.0 0.00 0.00 0.00 72 1017.5
20210125062215 18 196 0.0 1.0 0.00 0.00 0.00 71 1017.7
20210125061659 18 191 0.0 0.0 0.00 0.00 0.00 71 1017.6
20210125061157 18 191 0.0 0.0 0.00 0.00 0.00 70 1017.4
20210125060642 18 191 0.0 0.0 0.00 0.00 0.00 67 1017.4
20210125060121 19 191 0.0 1.0 0.00 0.00 0.00 66 1017.4
20210125055603 19 191 0.0 1.0 0.00 0.00 0.00 68 1017.4
20210125055100 19 191 0.0 1.0 0.00 0.00 0.00 67 1017.5
20210125054546 19 191 0.0 1.0 0.00 0.00 0.00 67 1017.4
20210125054040 20 173 0.0 1.0 0.00 0.00 0.00 65 1017.4
20210125053501 20 173 0.0 1.0 0.00 0.00 0.00 64 1017.3
20210125053007 20 173 0.0 1.0 0.00 0.00 0.00 62 1017.3
20210125052458 20 173 0.0 1.0 0.00 0.00 0.00 62 1017.4
20210125051942 20 173 0.0 0.0 0.00 0.00 0.00 60 1017.4
20210125051405 20 173 0.0 1.0 0.00 0.00 0.00 59 1017.6
20210125050859 20 173 0.0 1.0 0.00 0.00 0.00 58 1017.5
20210125050358 20 175 0.0 1.0 0.00 0.00 0.00 60 1017.6
20210125045856 20 175 0.0 1.0 0.00 0.00 0.00 58 1017.7
20210125045347 20 180 0.0 1.0 0.00 0.00 0.00 59 1017.7
20210125044809 20 181 0.0 1.0 0.00 0.00 0.00 60 1017.6